Regional Weather Roundup
Issued by NWS

Home | Current Version | Previous Version | Graphics & Text | Print | Product List | Glossary Off
Versions: 1 2 3 4 5 6 7 8 9 10 11 12 13 14 15 16 17 18 19 20 21 22 23 24 25 26 27 28 29 30 31 32 33 34 35 36 37 38 39 40 41 42 43 44 45 46 47 48 49 50

000
ASUS43 KTOP 250059
RWRKS

WEATHER ROUNDUP FOR KANSAS
NATIONAL WEATHER SERVICE GOODLAND KS
800 PM CDT FRI APR 24 2015

NOTE:  "FAIR" INDICATES FEW OR NO CLOUDS BELOW 12,000 FEET WITH NO
SIGNIFICANT WEATHER AND/OR OBSTRUCTIONS TO VISIBILITY.

KSZ001>006-013>018-027>032-041>047-250200-
NORTHWEST KANSAS

CITY           SKY/WX    TMP DP  RH WIND       PRES   REMARKS
GOODLAND       CLOUDY    63  32  31 MISG      29.52F
HAYS           CLOUDY    59  48  67 NE14      29.45S
HILL CITY      TSTM      62  58  86 NE9       29.47S
RUSSELL        LGT RAIN  59  55  87 NE14      29.45S
$$

KSZ061>065-074>080-084>089-250200-
SOUTHWEST KANSAS

CITY           SKY/WX    TMP DP  RH WIND       PRES   REMARKS
DODGE CITY     CLOUDY    58  48  69 NW9       29.47S
ELKHART          N/A     63  41  44 W6          N/A
GARDEN CITY    CLOUDY    59  44  57 NW23G32   29.52R
GREAT BEND     CLOUDY    61  54  77 S14       29.47R
LIBERAL        MOCLDY    63  43  48 N9        29.50R
$$

KSZ066>073-081>083-090>101-250200-
SOUTHEAST KANSAS

CITY           SKY/WX    TMP DP  RH WIND       PRES   REMARKS
CHANUTE        MOCLDY    65  60  84 SE14      29.54F
COFFEYVILLE    CLOUDY    67  59  75 S20       29.56F
HUTCHINSON     PTCLDY    73  54  51 S22G30    29.42F
MEDICINE LODGE   N/A     71  55  56 S21G31    29.43F
NEWTON         CLEAR     68  57  68 S16       29.47F
PARSONS        CLOUDY    68  60  75 S14G26    29.53F
WICHITA INTL   PTCLDY    70  58  65 S20       29.46S
WICHITA JABRA  CLEAR     69  58  67 S20G25    29.47S
WINFIELD       CLEAR     69  57  65 S17G29    29.51F
$$

KSZ007>012-019>026-033>040-048>060-102>105-250200-
NORTHEAST KANSAS

CITY           SKY/WX    TMP DP  RH WIND       PRES   REMARKS
CONCORDIA      CLOUDY    61  55  81 E13G23    29.44F THUNDER
EMPORIA        MOCLDY    67  59  75 SE17      29.49F
LAWRENCE       CLOUDY    64  56  75 E14       29.55F
MANHATTAN      CLOUDY    63  57  81 NE12      29.47F
OLATHE IND     CLOUDY    64  56  75 SE13      29.57F
OLATHE EXE     CLOUDY    63  56  78 SE12      29.58F
SALINA         PTCLDY    73  59  61 S21G28    29.40F
TOPEKA BILLARD CLOUDY    63  56  78 E12       29.52F
TOPEKA FORBES  CLOUDY    64  56  75 E10       29.50F
$$


USA.gov is the U.S. government's official web portal to all federal, state and local government web resources and services.